This is the latest recevied weather packets stored in our database for station/object W1TG-2. If no packets are shown the sender has not sent any weather packets the latest 10 day(s).
| Time | Temp. | Humidity | Pressure | Rain* | Wind** | Luminosity | Snow |
|---|---|---|---|---|---|---|---|
| 1787668204 | 23.89° C | 67% | 1012.8 hPa | 0 mm | - | - | - |
| 1787667844 | 23.89° C | 67% | 1013 hPa | 0 mm | - | - | - |
| 1787667484 | 23.89° C | 67% | 1012.9 hPa | 0 mm | - | - | - |
| 1787667123 | 23.89° C | 67% | 1013 hPa | 0 mm | - | - | - |
| 1787666764 | 23.89° C | 68% | 1012.9 hPa | 0 mm | - | - | - |
| 1787666404 | 23.33° C | 70% | 1012.8 hPa | 0 mm | - | - | - |
| 1787666043 | 23.33° C | 69% | 1012.9 hPa | 0 mm | - | - | - |
| 1787665684 | 22.78° C | 69% | 1013 hPa | 0 mm | - | - | - |
| 1787665323 | 22.78° C | 71% | 1013 hPa | 0 mm | - | - | - |
| 1787664963 | 22.78° C | 71% | 1012.9 hPa | 0 mm | - | - | - |
| 1787664604 | 22.22° C | 75% | 1012.9 hPa | 0 mm | - | - | - |
| 1787664244 | 21.67° C | 73% | 1012.9 hPa | 0 mm | - | - | - |
| 1787663883 | 21.67° C | 74% | 1012.8 hPa | 0 mm | - | - | - |
| 1787663523 | 21.67° C | 74% | 1012.9 hPa | 0 mm | - | - | - |
| 1787663164 | 21.67° C | 75% | 1012.8 hPa | 0 mm | - | - | - |
| 1787662803 | 21.11° C | 76% | 1012.7 hPa | 0 mm | - | - | - |
| 1787662443 | 21.11° C | 76% | 1012.9 hPa | 0 mm | - | - | - |
| 1787662084 | 21.11° C | 77% | 1012.9 hPa | 0 mm | - | - | - |
| 1787661724 | 20.56° C | 79% | 1012.8 hPa | 0 mm | - | - | - |
| 1787661363 | 20° C | 80% | 1012.7 hPa | 0 mm | - | - | - |
| 1787661004 | 20° C | 80% | 1012.8 hPa | 0 mm | - | - | - |
| 1787660643 | 20° C | 82% | 1012.7 hPa | 0 mm | - | - | - |
| 1787660283 | 19.44° C | 82% | 1012.9 hPa | 0 mm | - | - | - |
| 1787659924 | 19.44° C | 83% | 1012.7 hPa | 0 mm | - | - | - |
| 1787659563 | 18.89° C | 83% | 1012.8 hPa | 0 mm | - | - | - |
* Rain latest hour (hover to see other rain measurements)
** Current wind speed in m/s (hover to see current wind gust speed)